User: anonymous   Login
Location: Unspecified
(0.0000°N, 0.0000°E)
Time: 19:54:02
(UTC+00:00)
Language:

Tiangong 2 - Orbit

View from above orbital plane
View from above orbital plane
View from above satellite
View from above satellite

Ground track
Ground track

The orbit data is extracted from the following two-line orbital elements,

1 41765U 16057A   18323.56302238  .00002834  00000-0  38639-4 0  9998
2 41765  42.7822 136.2033 0008604 261.7324 205.1830 15.60014287124281
Epoch (UTC): 19 November 2018 13:30:45
Eccentricity: 0.0008604
inclination: 42.7822°
perigee height: 382 km
apogee height: 393 km
right ascension of ascending node: 136.2033°
argument of perigee: 261.7324°
revolutions per day: 15.60014287
mean anomaly at epoch: 205.1830°
orbit number at epoch: 12428

The dashed part of the orbit path shows where the satellite is in the earth's shadow,  

DLR